Weather History for Manistee, MI

Change the Weather History Date:

Saturday, January 19, 2013

  Actual Average Record
Temperature  
Mean Temperature 36 °F -  
Max Temperature 41 °F 29 °F 52 °F (1973)
Min Temperature 28 °F 15 °F -2 °F (1985)
Degree Days  
Heating Degree Days 30    
Moisture  
Dew Point 31 °F    
Average Humidity 76    
Maximum Humidity 93    
Minimum Humidity 56    
Precipitation  
Precipitation 0.00 in - - ()
Sea Level Pressure  
Sea Level Pressure 29.69 in    
Wind  
Wind Speed 11 mph (WSW)    
Max Wind Speed 38 mph    
Max Gust Speed 50 mph    
Visibility 10 miles    
Events      
Averages and records for this station are not official NWS values.
T = Trace of Precipitation, MM = Missing Value Source: NWS Daily Summary

Daily Weather History Graph

Daily Weather History Graph

Search for Another Location

Airport:

Trip Planner

Search our weather history database for the weather conditions in past years. The results will help you decide how hot, cold, wet, or windy it might be!

Date:

Astronomy

Jan. 19, 2013 Rise Set
Actual Time 8:14 AM EST 5:37 PM EST
Civil Twilight 7:42 AM EST 6:09 PM EST
Nautical Twilight 7:07 AM EST 6:44 PM EST
Astronomical Twilight 6:32 AM EST 7:19 PM EST
Moon 12:05 PM EST (1/19) 1:45 AM EST (1/19)
Length of Visible Light 10h 26m
Length of Day
9h 22m
First Quarter, 57% of the Moon is Illuminated
Jan 19
First Quarter
Jan 26
Full
Feb 3
Last Quarter
Feb 10
New
Feb 17
First Quarter

Hourly Weather History & Observations

Time (EST) Temp. Windchill Dew Point Humidity Pressure Visibility Wind Dir Wind Speed Gust Speed Precip Events Conditions
12:15 AM 39.2 °F 31.6 °F 32.0 °F 75% 29.77 in 10.0 mi SW 12.7 mph 19.6 mph N/A   Mostly Cloudy
12:35 AM 39.2 °F 31.2 °F 32.0 °F 75% 29.77 in 10.0 mi SW 13.8 mph - N/A   Overcast
12:55 AM 39.2 °F 32.0 °F 30.2 °F 70% 29.77 in 10.0 mi SW 11.5 mph 17.3 mph N/A   Overcast
1:15 AM 41.0 °F 35.2 °F 30.2 °F 65% 29.76 in 10.0 mi SW 9.2 mph 18.4 mph N/A   Overcast
1:35 AM 41.0 °F 33.5 °F 32.0 °F 70% 29.76 in 10.0 mi SW 13.8 mph 18.4 mph N/A   Overcast
1:55 AM 41.0 °F 34.7 °F 32.0 °F 70% 29.77 in 10.0 mi WSW 10.4 mph 18.4 mph N/A   Overcast
2:15 AM 41.0 °F 34.3 °F 32.0 °F 70% 29.78 in 10.0 mi WSW 11.5 mph 17.3 mph N/A   Overcast
2:35 AM 41.0 °F 33.9 °F 32.0 °F 70% 29.79 in 10.0 mi WSW 12.7 mph 18.4 mph N/A   Overcast
2:55 AM 41.0 °F 34.7 °F 33.8 °F 76% 29.78 in 10.0 mi WSW 10.4 mph - N/A   Overcast
3:15 AM 39.2 °F 32.0 °F 32.0 °F 75% 29.79 in 10.0 mi WSW 11.5 mph - N/A   Scattered Clouds
3:35 AM 39.2 °F 33.0 °F 32.0 °F 75% 29.79 in 10.0 mi West 9.2 mph - N/A   Clear
3:55 AM 39.2 °F 31.6 °F 32.0 °F 75% 29.79 in 10.0 mi West 12.7 mph - N/A   Clear
4:15 AM 39.2 °F 31.6 °F 30.2 °F 70% 29.79 in 10.0 mi West 12.7 mph - N/A   Clear
4:35 AM 37.4 °F 29.3 °F 30.2 °F 75% 29.79 in 10.0 mi West 12.7 mph 18.4 mph N/A   Clear
4:55 AM 37.4 °F 30.3 °F 30.2 °F 75% 29.79 in 10.0 mi West 10.4 mph 17.3 mph N/A   Clear
5:15 AM 37.4 °F 28.9 °F 30.2 °F 75% 29.80 in 10.0 mi West 13.8 mph - N/A   Partly Cloudy
5:35 AM 37.4 °F 30.3 °F 30.2 °F 75% 29.81 in 10.0 mi West 10.4 mph - N/A   Partly Cloudy
5:55 AM 37.4 °F 31.4 °F 30.2 °F 75% 29.82 in 10.0 mi West 8.1 mph - N/A   Mostly Cloudy
6:15 AM 37.4 °F 30.3 °F 30.2 °F 75% 29.82 in 10.0 mi West 10.4 mph - N/A   Overcast
6:35 AM 37.4 °F 31.4 °F 30.2 °F 75% 29.82 in 10.0 mi West 8.1 mph - N/A   Overcast
6:55 AM 37.4 °F 31.4 °F 30.2 °F 75% 29.82 in 10.0 mi West 8.1 mph - N/A   Overcast
7:15 AM 35.6 °F 31.7 °F 30.2 °F 81% 29.82 in 10.0 mi West 4.6 mph - N/A   Overcast
7:35 AM 35.6 °F 30.7 °F 30.2 °F 81% 29.82 in 10.0 mi NW 5.8 mph - N/A   Overcast
7:55 AM 35.6 °F 31.7 °F 30.2 °F 81% 29.82 in 10.0 mi WNW 4.6 mph - N/A   Overcast
8:15 AM 35.6 °F 32.8 °F 30.2 °F 81% 29.82 in 10.0 mi NW 3.5 mph - N/A   Overcast
8:35 AM 35.6 °F - 28.4 °F 75% 29.81 in 8.0 mi Calm Calm - N/A   Overcast
8:55 AM 35.6 °F - 30.2 °F 81% 29.81 in 10.0 mi Calm Calm - N/A   Mostly Cloudy
9:15 AM 35.6 °F - 30.2 °F 81% 29.81 in 10.0 mi Calm Calm - N/A   Mostly Cloudy
9:35 AM 35.6 °F - 30.2 °F 81% 29.81 in 10.0 mi Calm Calm - N/A   Mostly Cloudy
9:55 AM 35.6 °F - 30.2 °F 81% 29.80 in 10.0 mi Calm Calm - N/A   Overcast
10:15 AM 35.6 °F 32.8 °F 30.2 °F 81% 29.80 in 9.0 mi South 3.5 mph - N/A   Overcast
10:35 AM 37.4 °F 34.9 °F 30.2 °F 75% 29.80 in 10.0 mi SSW 3.5 mph - N/A   Overcast
10:55 AM 37.4 °F 34.9 °F 30.2 °F 75% 29.79 in 9.0 mi South 3.5 mph - N/A   Overcast
11:15 AM 37.4 °F - 30.2 °F 75% 29.77 in 9.0 mi Calm Calm - N/A   Overcast
11:35 AM 37.4 °F - 32.0 °F 81% 29.75 in 8.0 mi Calm Calm - N/A   Overcast
11:55 AM 37.4 °F - 33.8 °F 87% 29.73 in 7.0 mi Calm Calm - N/A   Overcast
12:15 PM 37.4 °F 32.8 °F 35.6 °F 93% 29.72 in 9.0 mi SSW 5.8 mph - N/A   Overcast
12:35 PM 37.4 °F 30.8 °F 33.8 °F 87% 29.71 in 10.0 mi South 9.2 mph - N/A   Overcast
12:55 PM 39.2 °F 34.2 °F 33.8 °F 81% 29.69 in 10.0 mi South 6.9 mph - N/A   Overcast
1:15 PM 39.2 °F 32.5 °F 33.8 °F 81% 29.67 in 10.0 mi South 10.4 mph 18.4 mph N/A   Overcast
1:35 PM 39.2 °F 32.5 °F 33.8 °F 81% 29.64 in 10.0 mi South 10.4 mph 17.3 mph N/A   Overcast
1:55 PM 39.2 °F 32.0 °F 33.8 °F 81% 29.63 in 10.0 mi South 11.5 mph 20.7 mph N/A   Overcast
2:15 PM 39.2 °F 31.6 °F 33.8 °F 81% 29.61 in 10.0 mi South 12.7 mph 20.7 mph N/A   Overcast
2:35 PM 39.2 °F 33.0 °F 33.8 °F 81% 29.61 in 10.0 mi SW 9.2 mph 16.1 mph N/A   Overcast
2:55 PM 39.2 °F 32.5 °F 33.8 °F 81% 29.61 in 10.0 mi SSW 10.4 mph 18.4 mph N/A   Overcast
3:15 PM 41.0 °F 32.5 °F 33.8 °F 76% 29.62 in 10.0 mi SW 17.3 mph 27.6 mph N/A   Overcast
3:35 PM 39.2 °F 30.8 °F 32.0 °F 75% 29.60 in 10.0 mi SSW 15.0 mph 21.9 mph N/A   Mostly Cloudy
3:55 PM 41.0 °F 35.8 °F 33.8 °F 76% 29.60 in 10.0 mi SSW 8.1 mph 21.9 mph N/A   Mostly Cloudy
4:15 PM 39.2 °F 31.2 °F 32.0 °F 75% 29.59 in 10.0 mi SSW 13.8 mph 20.7 mph N/A   Mostly Cloudy
4:35 PM 39.2 °F 31.6 °F 32.0 °F 75% 29.59 in 10.0 mi SSW 12.7 mph 18.4 mph N/A   Overcast
4:55 PM 39.2 °F 31.6 °F 33.8 °F 81% 29.58 in 10.0 mi SSW 12.7 mph 19.6 mph N/A   Overcast
5:15 PM 39.2 °F 33.6 °F 32.0 °F 75% 29.57 in 10.0 mi SSW 8.1 mph - N/A   Overcast
5:35 PM 39.2 °F 33.0 °F 32.0 °F 75% 29.56 in 10.0 mi SSW 9.2 mph 18.4 mph N/A   Overcast
5:55 PM 39.2 °F 33.0 °F 33.8 °F 81% 29.57 in 10.0 mi SW 9.2 mph - N/A   Overcast
6:15 PM 39.2 °F 32.0 °F 33.8 °F 81% 29.55 in 10.0 mi SSW 11.5 mph 17.3 mph N/A   Overcast
6:35 PM 39.2 °F 31.2 °F 32.0 °F 75% 29.56 in 10.0 mi SW 13.8 mph 20.7 mph N/A   Overcast
6:55 PM 39.2 °F 32.0 °F 33.8 °F 81% 29.55 in 10.0 mi SW 11.5 mph 17.3 mph N/A   Mostly Cloudy
7:15 PM 41.0 °F 33.9 °F 32.0 °F 70% 29.55 in 10.0 mi WSW 12.7 mph 24.2 mph N/A   Overcast
7:35 PM 41.0 °F 35.2 °F 32.0 °F 70% 29.54 in 10.0 mi WSW 9.2 mph 24.2 mph N/A   Overcast
7:55 PM 41.0 °F 32.8 °F 33.8 °F 76% 29.54 in 10.0 mi WSW 16.1 mph 20.7 mph N/A   Overcast
8:15 PM 41.0 °F 32.2 °F 33.8 °F 76% 29.53 in 10.0 mi West 18.4 mph 25.3 mph N/A   Overcast
8:35 PM 37.4 °F 27.8 °F 30.2 °F 75% 29.53 in 10.0 mi West 17.3 mph - N/A   Overcast
8:55 PM 37.4 °F 26.9 °F 30.2 °F 75% 29.53 in 10.0 mi West 20.7 mph 29.9 mph N/A   Overcast
9:15 PM 37.4 °F 28.2 °F 26.6 °F 65% 29.53 in 10.0 mi West 16.1 mph 32.2 mph N/A   Overcast
9:35 PM 37.4 °F 25.2 °F 23.0 °F 56% 29.52 in 10.0 mi West 28.8 mph 36.8 mph N/A   Overcast
9:55 PM 35.6 °F 23.4 °F 26.6 °F 70% 29.52 in 10.0 mi West 25.3 mph 31.1 mph N/A   Overcast
10:15 PM 35.6 °F 25.9 °F 24.8 °F 65% 29.51 in 10.0 mi West 16.1 mph 33.4 mph N/A   Mostly Cloudy
10:35 PM 35.6 °F 22.5 °F 26.6 °F 70% 29.51 in 10.0 mi West 29.9 mph 38.0 mph N/A   Mostly Cloudy
10:55 PM 32.0 °F 17.4 °F 26.6 °F 80% 29.54 in 4.0 mi WNW 31.1 mph 43.7 mph N/A   Overcast
11:15 PM 30.2 °F 13.7 °F 19.4 °F 64% 29.55 in 10.0 mi West 38.0 mph 49.5 mph N/A   Mostly Cloudy
11:35 PM 30.2 °F 15.7 °F 19.4 °F 64% 29.57 in 10.0 mi WNW 27.6 mph 41.4 mph N/A   Overcast
11:55 PM 28.4 °F 11.6 °F 19.4 °F 69% 29.60 in 3.0 mi WNW 35.7 mph 42.6 mph N/A   Overcast